GW1370 Weather Reports


Display with metric or nautical units.
time (UTC)temp
F
wind
direction
speed
MPH
gust
MPH
rain 1hr
in
rain 24hr
in
rain mn
in
humidity
%
barometer
mb
20260507064551 49 40 5.0 8.0 0.00 0.02 0.00 84 1015.5
20260507063045 48 15 5.0 9.0 0.00 0.02 0.00 84 1015.4
20260507061554 48 13 4.0 8.0 0.00 0.02 0.00 85 1015.3
20260507060058 48 22 3.0 8.0 0.00 0.02 0.00 86 1015.1
20260507054543 47 30 3.0 8.0 0.00 0.02 0.00 86 1015.0
20260507053047 47 25 4.0 7.0 0.00 0.02 0.00 86 1014.9
20260507051549 47 18 4.0 8.0 0.00 0.02 0.00 86 1014.9
20260507050045 47 347 3.0 7.0 0.00 0.02 0.00 86 1014.9
20260507044604 47 360 3.0 6.0 0.00 0.02 0.00 86 1014.7
20260507043059 47 359 3.0 5.0 0.00 0.02 0.00 86 1014.6
20260507041543 47 4 3.0 7.0 0.00 0.02 0.00 86 1014.6
20260507040051 47 1 3.0 7.0 0.00 0.02 0.00 86 1014.5
20260507034544 47 3 3.0 6.0 0.00 0.02 0.00 86 1014.5
20260507033044 47 13 2.0 6.0 0.00 0.02 0.00 85 1014.5
20260507031548 47 33 4.0 8.0 0.00 0.02 0.00 85 1014.5
20260507030042 47 352 1.0 4.0 0.00 0.02 0.00 84 1014.5
20260507024553 47 3 2.0 5.0 0.00 0.02 0.00 84 1014.5
20260507023104 48 5 1.0 5.0 0.00 0.02 0.00 84 1014.5
20260507021551 48 7 2.0 7.0 0.00 0.02 0.00 83 1014.4
20260507020058 48 28 4.0 7.0 0.00 0.02 0.00 83 1014.3
20260507014546 48 25 4.0 7.0 0.00 0.02 0.00 84 1014.3
20260507013042 48 38 4.0 7.0 0.00 0.02 0.00 84 1014.3
20260507011548 48 22 4.0 10.0 0.00 0.02 0.00 84 1014.3
20260507010047 48 13 4.0 8.0 0.00 0.02 0.00 83 1014.4
20260507004544 48 21 4.0 8.0 0.00 0.02 0.00 83 1014.3
20260507003056 48 45 4.0 9.0 0.00 0.02 0.00 83 1014.2
20260507001610 48 23 5.0 8.0 0.00 0.02 0.00 83 1014.3
20260507000051 48 1 2.0 5.0 0.00 0.02 0.00 83 1014.4
20260506234554 49 7 2.0 5.0 0.00 0.02 0.00 83 1014.3
20260506233047 49 5 2.0 5.0 0.00 0.02 0.00 83 1014.3
20260506231554 49 340 1.0 5.0 0.00 0.02 0.00 83 1014.4
20260506230055 49 13 2.0 5.0 0.00 0.02 0.00 83 1014.3
20260506224543 49 27 3.0 5.0 0.00 0.02 0.02 83 1014.3
20260506223040 49 25 2.0 5.0 0.00 0.02 0.02 83 1014.3
20260506221546 49 20 3.0 7.0 0.00 0.02 0.02 84 1014.2
20260506220049 49 35 2.0 5.0 0.00 0.02 0.02 84 1014.0
20260506214543 49 46 3.0 7.0 0.00 0.02 0.02 85 1013.9
20260506213040 49 12 2.0 5.0 0.00 0.02 0.02 85 1013.9
20260506211542 49 27 4.0 7.0 0.00 0.02 0.02 84 1013.8
20260506210051 49 38 2.0 5.0 0.00 0.02 0.02 84 1013.9
20260506204546 49 31 1.0 5.0 0.00 0.02 0.02 84 1013.7
20260506203045 49 30 3.0 5.0 0.00 0.02 0.02 84 1013.6
20260506201540 49 39 4.0 8.0 0.00 0.02 0.02 84 1013.5
20260506200042 50 53 7.0 9.0 0.00 0.02 0.02 83 1013.5
20260506194541 50 72 7.0 12.0 0.00 0.02 0.02 82 1013.3
20260506193043 51 56 7.0 13.0 0.00 0.02 0.02 78 1013.1
20260506191546 51 347 0.0 2.0 0.00 0.02 0.02 76 1013.0
20260506190049 51 0 0.0 0.0 0.00 0.02 0.02 76 1012.8
20260506184545 51 18 0.0 2.0 0.00 0.02 0.02 76 1012.8
20260506183044 51 36 2.0 4.0 0.00 0.02 0.02 76 1012.7
20260506181554 51 32 4.0 5.0 0.00 0.02 0.02 77 1012.6
20260506180053 51 58 4.0 7.0 0.00 0.02 0.02 77 1012.5
20260506174544 51 24 2.0 4.0 0.00 0.02 0.02 78 1012.3
20260506173046 51 31 1.0 3.0 0.00 0.02 0.02 78 1012.2
20260506171541 51 20 2.0 9.0 0.00 0.02 0.02 78 1012.2
20260506170047 52 51 4.0 7.0 0.00 0.02 0.02 78 1012.2
20260506164555 52 18 2.0 9.0 0.00 0.02 0.02 76 1012.1
20260506163050 52 19 3.0 8.0 0.00 0.02 0.02 75 1012.2
20260506161546 52 347 3.0 7.0 0.00 0.02 0.02 77 1012.1
20260506160052 52 43 1.0 8.0 0.00 0.02 0.02 77 1012.1
20260506154547 52 29 5.0 9.0 0.01 0.02 0.02 76 1012.1
20260506153044 52 11 2.0 5.0 0.01 0.01 0.01 78 1012.1
20260506151540 51 0 0.0 4.0 0.01 0.01 0.01 80 1012.1
20260506150059 51 8 3.0 9.0 0.01 0.01 0.01 78 1012.1
20260506144544 51 20 1.0 7.0 0.00 0.00 0.00 82 1012.1
20260506143046 51 57 6.0 11.0 0.00 0.00 0.00 83 1011.9
20260506141549 52 31 8.0 12.0 0.00 0.00 0.00 80 1011.9
20260506140048 53 70 9.0 13.0 0.00 0.00 0.00 71 1011.9
20260506134544 54 341 3.0 9.0 0.00 0.00 0.00 67 1011.9
20260506133056 53 332 3.0 10.0 0.00 0.00 0.00 69 1011.8
20260506131542 52 338 3.0 12.0 0.00 0.00 0.00 73 1011.9
20260506130046 52 326 4.0 12.0 0.00 0.00 0.00 73 1011.9
20260506124548 52 285 6.0 12.0 0.00 0.00 0.00 71 1012.0
20260506123049 52 313 4.0 13.0 0.00 0.00 0.00 69 1011.7
20260506121554 53 286 6.0 13.0 0.00 0.00 0.00 70 1011.8
20260506120101 53 331 4.0 11.0 0.00 0.00 0.00 68 1011.7
20260506114541 52 326 5.0 13.0 0.00 0.00 0.00 69 1011.7
20260506113040 53 335 9.0 16.0 0.00 0.00 0.00 68 1011.7
20260506111550 54 328 7.0 14.0 0.00 0.00 0.00 64 1011.5
20260506110056 55 325 6.0 11.0 0.00 0.00 0.00 63 1011.6
20260506104556 54 20 6.0 14.0 0.00 0.00 0.00 64 1011.6
20260506103045 53 325 8.0 16.0 0.00 0.00 0.00 66 1011.6
20260506101545 53 314 6.0 15.0 0.00 0.00 0.00 67 1011.6
20260506100053 52 323 4.0 15.0 0.00 0.00 0.00 69 1011.6
20260506094545 52 325 7.0 14.0 0.00 0.00 0.00 70 1011.7
20260506093046 51 314 8.0 13.0 0.00 0.00 0.00 70 1011.7
20260506091546 51 277 8.0 17.0 0.00 0.00 0.00 71 1011.6
20260506090045 51 306 10.0 17.0 0.00 0.00 0.00 73 1011.4
20260506084614 51 318 9.0 17.0 0.00 0.00 0.00 73 1011.2
20260506083045 50 297 8.0 13.0 0.00 0.00 0.00 76 1011.4
20260506081555 50 327 5.0 13.0 0.00 0.00 0.00 76 1011.5
20260506073043 48 319 8.0 13.0 0.00 0.00 0.00 80 1011.3
20260506071549 47 323 8.0 14.0 0.00 0.00 0.00 81 1011.3